Skip Page Navigation
NASA JPL Caltech
NASA Logo - Jet Propulsion Laboratory + View the NASA Portal
+ Center for Near-Earth Object Studies
JPL Home Earth Solar System Stars & Galaxies Technology
JPL Solar System Dynamics
BODIES ORBITS EPHEMERIDES TOOLS PHYSICAL DATA DISCOVERY FAQ SITE MAP
IMPORTANT: The SSD Announcement email list is now available. Major changes are coming in the near future, including possible hostname and/or URL changes. To be notified of such changes, subscribe to this email list.

Please visit this page for more details.


JPL Small-Body Database Browser
Search: [ help ]  
413153 (2002 EN113)
Classification: Main-belt Asteroid          SPK-ID: 2413153
Ephemeris | Orbit Diagram | Orbital Elements | Mission Design | Physical Parameters | Discovery Circumstances ]

[ show orbit diagram ]
Orbital Elements at Epoch 2458600.5 (2019-Apr-27.0) TDB
Reference: JPL 11 (heliocentric ecliptic J2000)
 Element Value Uncertainty (1-sigma)   Units 
e .04161338284912602 3.9628e-08  
a 2.288401240852499 1.9488e-08 au
q 2.193173123904489 9.2683e-08 au
i 7.403912176415051 6.6966e-06 deg
node 12.50350138263466 3.5096e-05 deg
peri 87.60739583363585 9.2281e-05 deg
M 48.72471940175841 8.3496e-05 deg
tp 2458429.363149694060
(2018-Nov-06.86314969)
0.00029336 TDB
period 1264.435524033313
3.46
1.6152e-05
4.422e-08
d
yr
n .2847120261630006 3.637e-09 deg/d
Q 2.383629357800509 2.0299e-08 au
  Orbit Determination Parameters
   # obs. used (total)      180  
   data-arc span      6176 days (16.91 yr)  
   first obs. used      2002-03-10  
   last obs. used      2019-02-05  
   planetary ephem.      DE431  
   SB-pert. ephem.      SB431-N16  
   condition code      0  
   norm. resid. RMS      .59223  
   source      ORB  
   producer      Otto Matic  
   solution date      2019-Jul-13 16:33:41  

Additional Information
 Earth MOID = 1.22488 au 
 Jupiter MOID = 2.65712 au 
 T_jup = 3.588 
[ show covariance matrix ]

Ephemeris | Orbit Diagram | Orbital Elements | Mission Design | Physical Parameters | Discovery Circumstances ]

Physical Parameter Table
Parameter Symbol Value Units Sigma Reference Notes
absolute magnitude H 17.3   n/a MPO419031  

413153 (2002 EN113)          Discovered 2002-Mar-10 by Spacewatch at Kitt Peak
Reference: Last Updated: 2014-11-10

Alternate Designations
 2002 EN113 = 2007 TH413 
Ephemeris | Orbit Diagram | Orbital Elements | Mission Design | Physical Parameters | Discovery Circumstances ]
ABOUT SSD CREDITS/AWARDS PRIVACY/COPYRIGHT GLOSSARY LINKS
FirstGov
(server date/time)  
NASA Home Page
Site Manager:   Ryan S. Park
Webmaster  Alan B. Chamberlin